Location: Tel Aviv
(32.0670°N, 34.7670°E)
Time: 22:52:40
(UTC+03:00)

ISS - Visible Passes

Search period start: 23 March 2023 23:00
Search period end: 03 April 2023 00:00
Orbit: 414 x 422 km, 51.6° (Epoch: 24 March)

Date Brightness Start Highest point End Pass type
(mag) Time Alt. Az. Time Alt. Az. Time Alt. Az.
30 Mar -1.1 20:51:35 10° NNW 20:52:23 14° N 20:52:23 14° N visible
31 Mar -1.4 20:04:23 10° N 20:05:42 12° NNE 20:06:21 11° NE visible
01 Apr -2.1 20:51:23 10° NW 20:53:17 30° NNW 20:53:17 30° NNW visible
02 Apr -2.6 20:03:27 10° NNW 20:06:25 29° NE 20:07:20 25° ENE visible
